Simultaneous Nadir Overpasses (SNOs) Predictions

Prediction of SNOs between GOES-17 and AQUA Satellite Orbit:

Table of predicted SNOs for the next 14.0 days since TLE Epoch: 4/17/2020
Index Date Time (GOES-17) GOES-17 Lat,Lon AQUA Lat,Lon Distance(km) Time Diff (sec)
1 04/19/2020 10:37:03 -0.02,-137.19 -0.31,-135.70 168.31 80
2 04/19/2020 22:58:28 0.02,-137.19 -0.75,-140.90 421.84 80
3 04/21/2020 22:46:16 0.02,-137.19 -0.14,-137.94 85.74 80
4 04/23/2020 22:36:44 0.02,-137.18 0.48,-134.98 249.72 80
5 04/24/2020 10:57:59 -0.02,-137.18 0.63,-140.14 336.83 80
6 04/26/2020 10:45:47 -0.02,-137.16 0.01,-137.18 3.17 80
7 04/28/2020 10:30:55 -0.01,-137.13 -0.62,-134.22 331.13 80
8 04/28/2020 22:52:19 0.01,-137.12 -0.50,-139.41 260.19 80
9 04/30/2020 22:42:47 0.01,-137.09 0.13,-136.45 72.51 80




NCC Satellite Simultaneous Nadir Overpasses (SNOs) Prediction Service
